Time,TemperatureF,DewpointF,PressureIn,WindDirection,WindDirectionDegrees,WindSpeedMPH,WindSpeedGustMPH,Humidity,HourlyPrecipIn,Conditions,Clouds,dailyrainin,SolarRadiationWatts/m^2,SoftwareType,DateUTC
2013-07-05 00:12:00,67.0,49.0,-100.00,SE,137,1.0,5.0,53,0.00,,,0.00,0.000000,,2013-07-05 07:12:00,
2013-07-05 00:23:00,67.0,49.0,-100.00,SE,137,1.0,5.0,53,0.00,,,0.00,0.000000,,2013-07-05 07:23:00,
2013-07-05 00:33:00,67.0,49.0,-100.00,SE,137,1.0,5.0,53,0.00,,,0.00,0.000000,,2013-07-05 07:33:00,
2013-07-05 00:43:00,67.0,49.0,-100.00,SE,137,1.0,5.0,53,0.00,,,0.00,0.000000,,2013-07-05 07:43:00,
2013-07-05 01:12:00,63.0,47.0,-100.00,SE,143,0.0,5.0,55,0.00,,,0.00,0.000000,,2013-07-05 08:12:00,
2013-07-05 01:23:00,63.0,47.0,-100.00,SE,143,0.0,5.0,55,0.00,,,0.00,0.000000,,2013-07-05 08:23:00,
2013-07-05 01:33:00,63.0,47.0,-100.00,SE,143,0.0,5.0,55,0.00,,,0.00,0.000000,,2013-07-05 08:33:00,
2013-07-05 01:43:00,63.0,47.0,-100.00,SE,143,0.0,5.0,55,0.00,,,0.00,0.000000,,2013-07-05 08:43:00,
2013-07-05 02:24:00,65.0,49.0,-100.00,SE,124,2.0,8.0,56,0.00,,,0.00,0.000000,,2013-07-05 09:24:00,
2013-07-05 02:35:00,65.0,49.0,-100.00,SE,124,2.0,8.0,56,0.00,,,0.00,0.000000,,2013-07-05 09:35:00,
2013-07-05 02:45:00,65.0,49.0,-100.00,SE,124,2.0,8.0,56,0.00,,,0.00,0.000000,,2013-07-05 09:45:00,
2013-07-05 03:15:00,60.0,47.0,-100.00,SE,145,0.0,5.0,63,0.00,,,0.00,0.000000,,2013-07-05 10:15:00,
2013-07-05 03:23:00,60.0,47.0,-100.00,SE,145,0.0,5.0,63,0.00,,,0.00,0.000000,,2013-07-05 10:23:00,
2013-07-05 03:35:00,60.0,47.0,-100.00,SE,145,0.0,5.0,63,0.00,,,0.00,0.000000,,2013-07-05 10:35:00,
2013-07-05 03:44:00,60.0,47.0,-100.00,SE,145,0.0,5.0,63,0.00,,,0.00,0.000000,,2013-07-05 10:44:00,
2013-07-05 04:14:00,62.0,48.0,-100.00,SE,131,4.0,7.0,61,0.00,,,0.00,0.000000,,2013-07-05 11:14:00,
2013-07-05 04:23:00,62.0,48.0,-100.00,SE,131,4.0,7.0,61,0.00,,,0.00,0.000000,,2013-07-05 11:23:00,
2013-07-05 04:36:00,62.0,48.0,-100.00,SE,131,4.0,7.0,61,0.00,,,0.00,0.000000,,2013-07-05 11:36:00,
2013-07-05 04:45:00,62.0,48.0,-100.00,SE,131,4.0,7.0,61,0.00,,,0.00,0.000000,,2013-07-05 11:45:00,
2013-07-05 05:13:00,60.0,47.0,-100.00,SE,136,3.0,8.0,62,0.00,,,0.00,0.000000,,2013-07-05 12:13:00,
2013-07-05 05:24:00,60.0,47.0,-100.00,SE,136,3.0,8.0,62,0.00,,,0.00,0.000000,,2013-07-05 12:24:00,
2013-07-05 05:34:00,60.0,47.0,-100.00,SE,136,3.0,8.0,62,0.00,,,0.00,0.000000,,2013-07-05 12:34:00,
2013-07-05 05:43:00,60.0,47.0,-100.00,SE,136,3.0,8.0,62,0.00,,,0.00,0.000000,,2013-07-05 12:43:00,
2013-07-05 06:23:00,62.0,49.0,-100.00,SSE,155,3.0,8.0,63,0.00,,,0.00,0.000000,,2013-07-05 13:23:00,
2013-07-05 06:36:00,62.0,49.0,-100.00,SSE,155,3.0,8.0,63,0.00,,,0.00,0.000000,,2013-07-05 13:36:00,
2013-07-05 07:36:00,68.0,53.0,-100.00,South,183,4.0,12.0,58,0.00,,,0.00,20.000000,,2013-07-05 14:36:00,
2013-07-05 07:44:00,68.0,53.0,-100.00,South,183,4.0,12.0,58,0.00,,,0.00,20.000000,,2013-07-05 14:44:00,
2013-07-05 08:14:00,73.0,53.0,-100.00,SSW,207,4.0,13.0,49,0.00,,,0.00,47.000000,,2013-07-05 15:14:00,
2013-07-05 08:22:00,73.0,53.0,-100.00,SSW,207,4.0,13.0,49,0.00,,,0.00,47.000000,,2013-07-05 15:22:00,
2013-07-05 08:33:00,73.0,53.0,-100.00,SSW,207,4.0,13.0,49,0.00,,,0.00,47.000000,,2013-07-05 15:33:00,
2013-07-05 08:43:00,73.0,53.0,-100.00,SSW,207,4.0,13.0,49,0.00,,,0.00,47.000000,,2013-07-05 15:43:00,
2013-07-05 09:11:00,78.0,48.0,-100.00,SSW,201,6.0,18.0,35,0.00,,,0.00,250.000000,,2013-07-05 16:11:00,
2013-07-05 09:22:00,78.0,48.0,-100.00,SSW,201,6.0,18.0,35,0.00,,,0.00,250.000000,,2013-07-05 16:22:00,
2013-07-05 09:33:00,78.0,48.0,-100.00,SSW,201,6.0,18.0,35,0.00,,,0.00,250.000000,,2013-07-05 16:33:00,
2013-07-05 09:44:00,78.0,48.0,-100.00,SSW,201,6.0,18.0,35,0.00,,,0.00,250.000000,,2013-07-05 16:44:00,
2013-07-05 10:22:00,83.0,39.0,-100.00,NNW,346,6.0,16.0,21,0.00,,,0.00,606.000000,,2013-07-05 17:22:00,
2013-07-05 11:11:00,85.0,37.0,-100.00,SSW,209,9.0,22.0,18,0.00,,,0.00,908.000000,,2013-07-05 18:11:00,
2013-07-05 11:22:00,85.0,37.0,-100.00,SSW,209,9.0,22.0,18,0.00,,,0.00,908.000000,,2013-07-05 18:22:00,
2013-07-05 11:33:00,85.0,37.0,-100.00,SSW,209,9.0,22.0,18,0.00,,,0.00,908.000000,,2013-07-05 18:33:00,
2013-07-05 11:43:00,85.0,37.0,-100.00,SSW,209,9.0,22.0,18,0.00,,,0.00,908.000000,,2013-07-05 18:43:00,
2013-07-05 12:12:00,85.0,35.0,-100.00,SSW,210,8.0,21.0,17,0.00,,,0.00,1044.000000,,2013-07-05 19:12:00,
2013-07-05 12:22:00,85.0,35.0,-100.00,SSW,210,8.0,21.0,17,0.00,,,0.00,1044.000000,,2013-07-05 19:22:00,
2013-07-05 12:33:00,85.0,35.0,-100.00,SSW,210,8.0,21.0,17,0.00,,,0.00,1044.000000,,2013-07-05 19:33:00,
2013-07-05 12:42:00,85.0,35.0,-100.00,SSW,210,8.0,21.0,17,0.00,,,0.00,1044.000000,,2013-07-05 19:42:00,
2013-07-05 13:11:00,86.0,35.0,-100.00,SW,221,10.0,23.0,16,0.00,,,0.00,1114.000000,,2013-07-05 20:11:00,
2013-07-05 13:22:00,86.0,35.0,-100.00,SW,221,10.0,23.0,16,0.00,,,0.00,1114.000000,,2013-07-05 20:22:00,
2013-07-05 13:33:00,86.0,35.0,-100.00,SW,221,10.0,23.0,16,0.00,,,0.00,1114.000000,,2013-07-05 20:33:00,
2013-07-05 13:43:00,86.0,35.0,-100.00,SW,221,10.0,23.0,16,0.00,,,0.00,1114.000000,,2013-07-05 20:43:00,
2013-07-05 14:11:00,85.0,35.0,-100.00,SW,231,11.0,27.0,17,0.00,,,0.00,1125.000000,,2013-07-05 21:11:00,
2013-07-05 14:21:00,85.0,35.0,-100.00,SW,231,11.0,27.0,17,0.00,,,0.00,1125.000000,,2013-07-05 21:21:00,
2013-07-05 14:34:00,85.0,35.0,-100.00,SW,231,11.0,27.0,17,0.00,,,0.00,1125.000000,,2013-07-05 21:34:00,
2013-07-05 14:42:00,85.0,35.0,-100.00,SW,231,11.0,27.0,17,0.00,,,0.00,1125.000000,,2013-07-05 21:42:00,
2013-07-05 15:11:00,86.0,39.0,-100.00,SW,233,9.0,23.0,19,0.00,,,0.00,1088.000000,,2013-07-05 22:11:00,
2013-07-05 15:21:00,86.0,39.0,-100.00,SW,233,9.0,23.0,19,0.00,,,0.00,1088.000000,,2013-07-05 22:21:00,
2013-07-05 15:33:00,86.0,39.0,-100.00,SW,233,9.0,23.0,19,0.00,,,0.00,1088.000000,,2013-07-05 22:33:00,
2013-07-05 15:43:00,86.0,39.0,-100.00,SW,233,9.0,23.0,19,0.00,,,0.00,1088.000000,,2013-07-05 22:43:00,
2013-07-05 16:23:00,87.0,32.0,-100.00,SW,227,12.0,28.0,14,0.00,,,0.00,999.000000,,2013-07-05 23:23:00,
2013-07-05 16:32:00,87.0,32.0,-100.00,SW,227,12.0,28.0,14,0.00,,,0.00,999.000000,,2013-07-05 23:32:00,
2013-07-05 16:43:00,87.0,32.0,-100.00,SW,227,12.0,28.0,14,0.00,,,0.00,999.000000,,2013-07-05 23:43:00,
2013-07-05 17:11:00,87.0,24.0,-100.00,NNE,20,10.0,30.0,10,0.00,,,0.00,847.000000,,2013-07-06 00:11:00,
2013-07-05 17:22:00,87.0,24.0,-100.00,NNE,20,10.0,30.0,10,0.00,,,0.00,847.000000,,2013-07-06 00:22:00,
2013-07-05 17:33:00,87.0,24.0,-100.00,NNE,20,10.0,30.0,10,0.00,,,0.00,847.000000,,2013-07-06 00:33:00,
2013-07-05 17:42:00,87.0,24.0,-100.00,NNE,20,10.0,30.0,10,0.00,,,0.00,847.000000,,2013-07-06 00:42:00,
2013-07-05 18:12:00,84.0,24.0,-100.00,SW,235,10.0,26.0,11,0.00,,,0.00,653.000000,,2013-07-06 01:12:00,
2013-07-05 18:22:00,84.0,24.0,-100.00,SW,235,10.0,26.0,11,0.00,,,0.00,653.000000,,2013-07-06 01:22:00,
2013-07-05 18:33:00,84.0,24.0,-100.00,SW,235,10.0,26.0,11,0.00,,,0.00,653.000000,,2013-07-06 01:33:00,
2013-07-05 18:42:00,84.0,24.0,-100.00,SW,235,10.0,26.0,11,0.00,,,0.00,653.000000,,2013-07-06 01:42:00,
2013-07-05 19:11:00,83.0,25.0,-100.00,SW,224,11.0,28.0,12,0.00,,,0.00,429.000000,,2013-07-06 02:11:00,
2013-07-05 19:22:00,83.0,25.0,-100.00,SW,224,11.0,28.0,12,0.00,,,0.00,429.000000,,2013-07-06 02:22:00,
2013-07-05 19:33:00,83.0,25.0,-100.00,SW,224,11.0,28.0,12,0.00,,,0.00,429.000000,,2013-07-06 02:33:00,
2013-07-05 19:43:00,83.0,25.0,-100.00,SW,224,11.0,28.0,12,0.00,,,0.00,429.000000,,2013-07-06 02:43:00,
2013-07-05 20:11:00,78.0,25.0,-100.00,SW,214,6.0,22.0,14,0.00,,,-99.99,199.000000,,2013-07-06 03:11:00,
2013-07-05 20:22:00,78.0,25.0,-100.00,SW,214,6.0,22.0,14,0.00,,,-99.99,199.000000,,2013-07-06 03:22:00,
2013-07-05 20:34:00,78.0,25.0,-100.00,SW,214,6.0,22.0,14,0.00,,,-99.99,199.000000,,2013-07-06 03:34:00,
2013-07-05 20:43:00,78.0,25.0,-100.00,SW,214,6.0,22.0,14,0.00,,,-99.99,199.000000,,2013-07-06 03:43:00,
2013-07-05 21:12:00,71.0,25.0,-100.00,SW,225,5.0,13.0,18,0.00,,,0.00,8.000000,,2013-07-06 04:12:00,
2013-07-05 21:22:00,71.0,25.0,-100.00,SW,225,5.0,13.0,18,0.00,,,0.00,8.000000,,2013-07-06 04:22:00,
2013-07-05 21:33:00,71.0,25.0,-100.00,SW,225,5.0,13.0,18,0.00,,,0.00,8.000000,,2013-07-06 04:33:00,
2013-07-05 21:43:00,71.0,25.0,-100.00,SW,225,5.0,13.0,18,0.00,,,0.00,8.000000,,2013-07-06 04:43:00,
2013-07-05 22:12:00,67.0,25.0,-100.00,SE,142,0.0,9.0,20,0.00,,,0.00,0.000000,,2013-07-06 05:12:00,
2013-07-05 22:22:00,67.0,25.0,-100.00,SE,142,0.0,9.0,20,0.00,,,0.00,0.000000,,2013-07-06 05:22:00,
2013-07-05 22:33:00,67.0,25.0,-100.00,SE,142,0.0,9.0,20,0.00,,,0.00,0.000000,,2013-07-06 05:33:00,
2013-07-05 22:42:00,67.0,25.0,-100.00,SE,142,0.0,9.0,20,0.00,,,0.00,0.000000,,2013-07-06 05:42:00,
2013-07-05 23:12:00,64.0,23.0,-100.00,SE,141,1.0,6.0,21,0.00,,,0.00,0.000000,,2013-07-06 06:12:00,
2013-07-05 23:22:00,64.0,23.0,-100.00,SE,141,1.0,6.0,21,0.00,,,0.00,0.000000,,2013-07-06 06:22:00,
2013-07-05 23:34:00,64.0,23.0,-100.00,SE,141,1.0,6.0,21,0.00,,,0.00,0.000000,,2013-07-06 06:34:00,